Year,Month,Day,Hour,Minute,Value (Times are PST for temperature in C)
2006,03,23,00,00,9.40
2006,03,23,00,01,9.40
2006,03,23,00,02,9.40
2006,03,23,00,03,9.40
2006,03,23,00,04,9.40
2006,03,23,00,05,9.40
2006,03,23,00,06,9.40
2006,03,23,00,07,9.40
2006,03,23,00,08,9.40
2006,03,23,00,09,9.30
2006,03,23,00,10,9.30
2006,03,23,00,11,9.30
2006,03,23,00,12,9.40
2006,03,23,00,13,9.40
2006,03,23,00,14,9.40
2006,03,23,00,15,9.40
2006,03,23,00,16,9.40
2006,03,23,00,17,9.40
2006,03,23,00,18,9.40
2006,03,23,00,19,9.30
2006,03,23,00,20,9.30
2006,03,23,00,21,9.30
2006,03,23,00,22,9.30
2006,03,23,00,23,9.40
2006,03,23,00,24,9.40
2006,03,23,00,25,9.40
2006,03,23,00,26,9.40
2006,03,23,00,27,9.40
2006,03,23,00,28,9.40
2006,03,23,00,29,9.40
2006,03,23,00,30,9.40
2006,03,23,00,31,9.40
2006,03,23,00,32,9.40
2006,03,23,00,33,9.40
2006,03,23,00,34,9.40
2006,03,23,00,35,9.40
2006,03,23,00,36,9.40
2006,03,23,00,37,9.40
2006,03,23,00,38,9.40
2006,03,23,00,39,9.40
2006,03,23,00,40,9.40
2006,03,23,00,41,9.40
2006,03,23,00,42,9.40
2006,03,23,00,43,9.40
2006,03,23,00,44,9.40
2006,03,23,00,45,9.40
2006,03,23,00,46,9.40
2006,03,23,00,47,9.40
2006,03,23,00,48,9.40
2006,03,23,00,49,9.40
2006,03,23,00,50,9.40
2006,03,23,00,51,9.40
2006,03,23,00,52,9.30
2006,03,23,00,53,9.30
2006,03,23,00,54,9.30
2006,03,23,00,55,9.30
2006,03,23,00,56,9.30
2006,03,23,00,57,9.30
2006,03,23,00,58,9.30
2006,03,23,00,59,9.30
2006,03,23,01,00,9.30
2006,03,23,01,01,9.30
2006,03,23,01,02,9.30
2006,03,23,01,03,9.40
2006,03,23,01,04,9.40
2006,03,23,01,05,9.40
2006,03,23,01,06,9.40
2006,03,23,01,07,9.40
2006,03,23,01,08,9.40
2006,03,23,01,09,9.50
2006,03,23,01,10,9.50
2006,03,23,01,11,9.50
2006,03,23,01,12,9.50
2006,03,23,01,13,9.50
2006,03,23,01,14,9.60
2006,03,23,01,15,9.60
2006,03,23,01,16,9.60
2006,03,23,01,17,9.70
2006,03,23,01,18,9.70
2006,03,23,01,19,9.70
2006,03,23,01,20,9.70
2006,03,23,01,21,9.70
2006,03,23,01,22,9.70
2006,03,23,01,23,9.70
2006,03,23,01,24,9.70
2006,03,23,01,25,9.70
2006,03,23,01,26,9.70
2006,03,23,01,27,9.70
2006,03,23,01,28,9.70
2006,03,23,01,29,9.70
2006,03,23,01,30,9.70
2006,03,23,01,31,9.70
2006,03,23,01,32,9.80
2006,03,23,01,33,9.80
2006,03,23,01,34,9.80
2006,03,23,01,35,9.70
2006,03,23,01,36,9.70
2006,03,23,01,37,9.70
2006,03,23,01,38,9.70
2006,03,23,01,39,9.70
2006,03,23,01,40,9.70
2006,03,23,01,41,9.70
2006,03,23,01,42,9.70
2006,03,23,01,43,9.70
2006,03,23,01,44,9.70
2006,03,23,01,45,9.70
2006,03,23,01,46,9.70
2006,03,23,01,47,9.70
2006,03,23,01,48,9.70
2006,03,23,01,49,9.70
2006,03,23,01,50,9.70
2006,03,23,01,51,9.70
2006,03,23,01,52,9.70
2006,03,23,01,53,9.70
2006,03,23,01,54,9.70
2006,03,23,01,55,9.70
2006,03,23,01,56,9.70
2006,03,23,01,57,9.70
2006,03,23,01,58,9.70
2006,03,23,01,59,9.70
2006,03,23,02,00,9.70
2006,03,23,02,01,9.70
2006,03,23,02,02,9.70
2006,03,23,02,03,9.70
2006,03,23,02,04,9.70
2006,03,23,02,05,9.70
2006,03,23,02,06,9.70
2006,03,23,02,07,9.80
2006,03,23,02,08,9.80
2006,03,23,02,09,9.80
2006,03,23,02,10,9.80
2006,03,23,02,11,9.80
2006,03,23,02,12,9.80
2006,03,23,02,13,9.80
2006,03,23,02,14,9.80
2006,03,23,02,15,9.80
2006,03,23,02,16,9.80
2006,03,23,02,17,9.80
2006,03,23,02,18,9.80
2006,03,23,02,19,9.80
2006,03,23,02,20,9.80
2006,03,23,02,21,9.80
2006,03,23,02,22,9.80
2006,03,23,02,23,9.80
2006,03,23,02,24,9.80
2006,03,23,02,25,9.80
2006,03,23,02,26,9.80
2006,03,23,02,27,9.80
2006,03,23,02,28,9.80
2006,03,23,02,29,9.80
2006,03,23,02,30,9.70
2006,03,23,02,31,9.70
2006,03,23,02,32,9.70
2006,03,23,02,33,9.70
2006,03,23,02,34,9.70
2006,03,23,02,35,9.70
2006,03,23,02,36,9.70
2006,03,23,02,37,9.60
2006,03,23,02,38,9.60
2006,03,23,02,39,9.60
2006,03,23,02,40,9.50
2006,03,23,02,41,9.50
2006,03,23,02,42,9.40
2006,03,23,02,43,9.30
2006,03,23,02,44,9.30
2006,03,23,02,45,9.20
2006,03,23,02,46,9.20
2006,03,23,02,47,9.20
2006,03,23,02,48,9.10
2006,03,23,02,49,9.00
2006,03,23,02,50,9.00
2006,03,23,02,51,9.00
2006,03,23,02,52,9.00
2006,03,23,02,53,9.00
2006,03,23,02,54,9.00
2006,03,23,02,55,9.00
2006,03,23,02,56,9.10
2006,03,23,02,57,9.10
2006,03,23,02,58,9.10
2006,03,23,02,59,9.10
2006,03,23,03,00,9.10
2006,03,23,03,01,9.10
2006,03,23,03,02,9.00
2006,03,23,03,03,9.00
2006,03,23,03,04,9.00
2006,03,23,03,05,8.90
2006,03,23,03,06,8.90
2006,03,23,03,07,8.90
2006,03,23,03,08,8.90
2006,03,23,03,09,8.90
2006,03,23,03,10,8.90
2006,03,23,03,11,8.90
2006,03,23,03,12,8.90
2006,03,23,03,13,9.00
2006,03,23,03,14,9.00
2006,03,23,03,15,9.00
2006,03,23,03,16,9.00
2006,03,23,03,17,9.00
2006,03,23,03,18,9.00
2006,03,23,03,19,9.00
2006,03,23,03,20,9.00
2006,03,23,03,21,9.00
2006,03,23,03,22,9.00
2006,03,23,03,23,9.00
2006,03,23,03,24,9.00
2006,03,23,03,25,9.00
2006,03,23,03,26,9.00
2006,03,23,03,27,9.00
2006,03,23,03,28,9.00
2006,03,23,03,29,9.00
2006,03,23,03,30,9.00
2006,03,23,03,31,9.00
2006,03,23,03,32,9.00
2006,03,23,03,33,9.00
2006,03,23,03,34,9.00
2006,03,23,03,35,9.00
2006,03,23,03,36,8.90
2006,03,23,03,37,8.90
2006,03,23,03,38,8.90
2006,03,23,03,39,8.90
2006,03,23,03,40,8.90
2006,03,23,03,41,9.00
2006,03,23,03,42,9.00
2006,03,23,03,43,9.00
2006,03,23,03,44,9.00
2006,03,23,03,45,9.00
2006,03,23,03,46,9.00
2006,03,23,03,47,9.00
2006,03,23,03,48,9.00
2006,03,23,03,49,9.00
2006,03,23,03,50,9.10
2006,03,23,03,51,9.10
2006,03,23,03,52,9.10
2006,03,23,03,53,9.10
2006,03,23,03,54,9.10
2006,03,23,03,55,9.10
2006,03,23,03,56,9.10
2006,03,23,03,57,9.10
2006,03,23,03,58,9.10
2006,03,23,03,59,9.10
2006,03,23,04,00,9.10
2006,03,23,04,01,9.10
2006,03,23,04,02,9.10
2006,03,23,04,03,9.10
2006,03,23,04,04,9.10
2006,03,23,04,05,9.10
2006,03,23,04,06,9.10
2006,03,23,04,07,9.10
2006,03,23,04,08,9.10
2006,03,23,04,09,9.10
2006,03,23,04,10,9.10
2006,03,23,04,11,9.10
2006,03,23,04,12,9.10
2006,03,23,04,13,9.00
2006,03,23,04,14,9.00
2006,03,23,04,15,9.00
2006,03,23,04,16,9.00
2006,03,23,04,17,9.00
2006,03,23,04,18,9.00
2006,03,23,04,19,8.90
2006,03,23,04,20,8.90
2006,03,23,04,21,9.00
2006,03,23,04,22,9.00
2006,03,23,04,23,9.00
2006,03,23,04,24,9.00
2006,03,23,04,25,9.00
2006,03,23,04,26,9.00
2006,03,23,04,27,9.00
2006,03,23,04,28,9.00
2006,03,23,04,29,9.00
2006,03,23,04,30,9.00
2006,03,23,04,31,9.00
2006,03,23,04,32,9.00
2006,03,23,04,33,9.00
2006,03,23,04,34,9.00
2006,03,23,04,35,9.00
2006,03,23,04,36,9.10
2006,03,23,04,37,9.10
2006,03,23,04,38,9.10
2006,03,23,04,39,9.10
2006,03,23,04,40,9.10
2006,03,23,04,41,9.10
2006,03,23,04,42,9.10
2006,03,23,04,43,9.10
2006,03,23,04,44,9.10
2006,03,23,04,45,9.10
2006,03,23,04,46,9.10
2006,03,23,04,47,9.10
2006,03,23,04,48,9.20
2006,03,23,04,49,9.20
2006,03,23,04,50,9.20
2006,03,23,04,51,9.20
2006,03,23,04,52,9.20
2006,03,23,04,53,9.20
2006,03,23,04,54,9.20
2006,03,23,04,55,9.20
2006,03,23,04,56,9.20
2006,03,23,04,57,9.20
2006,03,23,04,58,9.20
2006,03,23,04,59,9.20
2006,03,23,05,00,9.20
2006,03,23,05,01,9.20
2006,03,23,05,02,9.20
2006,03,23,05,03,9.20
2006,03,23,05,04,9.20
2006,03,23,05,05,9.20
2006,03,23,05,06,9.20
2006,03,23,05,07,9.30
2006,03,23,05,08,9.20
2006,03,23,05,09,9.20
2006,03,23,05,10,9.20
2006,03,23,05,11,9.20
2006,03,23,05,12,9.20
2006,03,23,05,13,9.20
2006,03,23,05,14,9.20
2006,03,23,05,15,9.20
2006,03,23,05,16,9.20
2006,03,23,05,17,9.20
2006,03,23,05,18,9.20
2006,03,23,05,19,9.20
2006,03,23,05,20,9.20
2006,03,23,05,21,9.20
2006,03,23,05,22,9.20
2006,03,23,05,23,9.20
2006,03,23,05,24,9.10
2006,03,23,05,25,9.10
2006,03,23,05,26,9.10
2006,03,23,05,27,9.10
2006,03,23,05,28,9.10
2006,03,23,05,29,9.10
2006,03,23,05,30,9.10
2006,03,23,05,31,9.10
2006,03,23,05,32,9.10
2006,03,23,05,33,9.10
2006,03,23,05,34,9.10
2006,03,23,05,35,9.10
2006,03,23,05,36,9.10
2006,03,23,05,37,9.10
2006,03,23,05,38,9.20
2006,03,23,05,39,9.20
2006,03,23,05,40,9.20
2006,03,23,05,41,9.20
2006,03,23,05,42,9.30
2006,03,23,05,43,9.30
2006,03,23,05,44,9.40
2006,03,23,05,45,9.40
2006,03,23,05,46,9.40
2006,03,23,05,47,9.50
2006,03,23,05,48,9.50
2006,03,23,05,49,9.60
2006,03,23,05,50,9.60
2006,03,23,05,51,9.70
2006,03,23,05,52,9.70
2006,03,23,05,53,9.70
2006,03,23,05,54,9.70
2006,03,23,05,55,9.70
2006,03,23,05,56,9.70
2006,03,23,05,57,9.70
2006,03,23,05,58,9.70
2006,03,23,05,59,9.70
2006,03,23,06,00,9.70
2006,03,23,06,01,9.70
2006,03,23,06,02,9.70
2006,03,23,06,03,9.70
2006,03,23,06,04,9.70
2006,03,23,06,05,9.70
2006,03,23,06,06,9.70
2006,03,23,06,07,9.70
2006,03,23,06,08,9.70
2006,03,23,06,09,9.70
2006,03,23,06,10,9.70
2006,03,23,06,11,9.70
2006,03,23,06,12,9.70
2006,03,23,06,13,9.70
2006,03,23,06,14,9.70
2006,03,23,06,15,9.70
2006,03,23,06,16,9.70
2006,03,23,06,17,9.70
2006,03,23,06,18,9.70
2006,03,23,06,19,9.70
2006,03,23,06,20,9.70
2006,03,23,06,21,9.70
2006,03,23,06,22,9.70
2006,03,23,06,23,9.70
2006,03,23,06,24,9.80
2006,03,23,06,25,9.80
2006,03,23,06,26,9.80
2006,03,23,06,27,9.90
2006,03,23,06,28,9.90
2006,03,23,06,29,9.90
2006,03,23,06,30,9.90
2006,03,23,06,31,9.90
2006,03,23,06,32,10.00
2006,03,23,06,33,10.10
2006,03,23,06,34,10.10
2006,03,23,06,35,10.10
2006,03,23,06,36,10.10
2006,03,23,06,37,10.20
2006,03,23,06,38,10.20
2006,03,23,06,39,10.20
2006,03,23,06,40,10.30
2006,03,23,06,41,10.30
2006,03,23,06,42,10.40
2006,03,23,06,43,10.50
2006,03,23,06,44,10.60
2006,03,23,06,45,10.60
2006,03,23,06,46,10.60
2006,03,23,06,47,10.60
2006,03,23,06,48,10.60
2006,03,23,06,49,10.60
2006,03,23,06,50,10.60
2006,03,23,06,51,10.60
2006,03,23,06,52,10.60
2006,03,23,06,53,10.60
2006,03,23,06,54,10.60
2006,03,23,06,55,10.60
2006,03,23,06,56,10.60
2006,03,23,06,57,10.70
2006,03,23,06,58,10.70
2006,03,23,06,59,10.70
2006,03,23,07,00,10.70
2006,03,23,07,01,10.60
2006,03,23,07,02,10.60
2006,03,23,07,03,10.60
2006,03,23,07,04,10.60
2006,03,23,07,05,10.60
2006,03,23,07,06,10.60
2006,03,23,07,07,10.60
2006,03,23,07,08,10.60
2006,03,23,07,09,10.60
2006,03,23,07,10,10.60
2006,03,23,07,11,10.60
2006,03,23,07,12,10.60
2006,03,23,07,13,10.60
2006,03,23,07,14,10.60
2006,03,23,07,15,10.60
2006,03,23,07,16,10.40
2006,03,23,07,17,10.40
2006,03,23,07,18,10.40
2006,03,23,07,19,10.40
2006,03,23,07,20,10.40
2006,03,23,07,21,10.40
2006,03,23,07,22,10.40
2006,03,23,07,23,10.40
2006,03,23,07,24,10.40
2006,03,23,07,25,10.40
2006,03,23,07,26,10.40
2006,03,23,07,27,10.40
2006,03,23,07,28,10.40
2006,03,23,07,29,10.50
2006,03,23,07,30,10.60
2006,03,23,07,31,10.60
2006,03,23,07,32,10.60
2006,03,23,07,33,10.60
2006,03,23,07,34,10.60
2006,03,23,07,35,10.60
2006,03,23,07,36,10.60
2006,03,23,07,37,10.60
2006,03,23,07,38,10.60
2006,03,23,07,39,10.60
2006,03,23,07,40,10.60
2006,03,23,07,41,10.60
2006,03,23,07,42,10.60
2006,03,23,07,43,10.70
2006,03,23,07,44,10.70
2006,03,23,07,45,10.70
2006,03,23,07,46,10.70
2006,03,23,07,47,10.70
2006,03,23,07,48,10.70
2006,03,23,07,49,10.60
2006,03,23,07,50,10.60
2006,03,23,07,51,10.60
2006,03,23,07,52,10.60
2006,03,23,07,53,10.60
2006,03,23,07,54,10.60
2006,03,23,07,55,10.60
2006,03,23,07,56,10.60
2006,03,23,07,57,10.60
2006,03,23,07,58,10.60
2006,03,23,07,59,10.60
2006,03,23,08,00,10.60
2006,03,23,08,01,10.60
2006,03,23,08,02,10.60
2006,03,23,08,03,10.60
2006,03,23,08,04,10.60
2006,03,23,08,05,10.60
2006,03,23,08,06,10.60
2006,03,23,08,07,10.70
2006,03,23,08,08,10.70
2006,03,23,08,09,10.70
2006,03,23,08,10,10.80
2006,03,23,08,11,10.90
2006,03,23,08,12,11.00
2006,03,23,08,13,11.10
2006,03,23,08,14,11.10
2006,03,23,08,15,11.20
2006,03,23,08,16,11.40
2006,03,23,08,17,11.50
2006,03,23,08,18,11.60
2006,03,23,08,19,11.70
2006,03,23,08,20,11.80
2006,03,23,08,21,11.80
2006,03,23,08,22,11.80
2006,03,23,08,23,11.90
2006,03,23,08,24,11.90
2006,03,23,08,25,11.90
2006,03,23,08,26,11.90
2006,03,23,08,27,11.90
2006,03,23,08,28,11.90
2006,03,23,08,29,11.90
2006,03,23,08,30,11.90
2006,03,23,08,31,11.90
2006,03,23,08,32,11.90
2006,03,23,08,33,12.00
2006,03,23,08,34,12.00
2006,03,23,08,35,12.00
2006,03,23,08,36,12.00
2006,03,23,08,37,12.00
2006,03,23,08,38,12.00
2006,03,23,08,39,12.00
2006,03,23,08,40,12.00
2006,03,23,08,41,12.00
2006,03,23,08,42,12.00
2006,03,23,08,43,12.00
2006,03,23,08,44,12.00
2006,03,23,08,45,12.00
2006,03,23,08,46,12.00
2006,03,23,08,47,11.90
2006,03,23,08,48,11.90
2006,03,23,08,49,11.90
2006,03,23,08,50,11.90
2006,03,23,08,51,11.80
2006,03,23,08,52,11.80
2006,03,23,08,53,11.80
2006,03,23,08,54,11.80
2006,03,23,08,55,11.80
2006,03,23,08,56,11.70
2006,03,23,08,57,11.70
2006,03,23,08,58,11.60
2006,03,23,08,59,11.40
2006,03,23,09,00,11.40
2006,03,23,09,01,11.20
2006,03,23,09,02,11.10
2006,03,23,09,03,11.10
2006,03,23,09,04,11.10
2006,03,23,09,05,11.10
2006,03,23,09,06,11.10
2006,03,23,09,07,11.10
2006,03,23,09,08,11.00
2006,03,23,09,09,10.90
2006,03,23,09,10,10.80
2006,03,23,09,11,10.80
2006,03,23,09,12,10.70
2006,03,23,09,13,10.70
2006,03,23,09,14,10.70
2006,03,23,09,15,10.70
2006,03,23,09,16,10.70
2006,03,23,09,17,10.80
2006,03,23,09,18,10.80
2006,03,23,09,19,10.80
2006,03,23,09,20,10.70
2006,03,23,09,21,10.70
2006,03,23,09,22,10.70
2006,03,23,09,23,10.70
2006,03,23,09,24,10.70
2006,03,23,09,25,10.80
2006,03,23,09,26,10.80
2006,03,23,09,27,10.80
2006,03,23,09,28,10.70
2006,03,23,09,29,10.70
2006,03,23,09,30,10.70
2006,03,23,09,31,10.70
2006,03,23,09,32,10.70
2006,03,23,09,33,10.70
2006,03,23,09,34,10.60
2006,03,23,09,35,10.60
2006,03,23,09,36,10.60
2006,03,23,09,37,10.60
2006,03,23,09,38,10.60
2006,03,23,09,39,10.60
2006,03,23,09,40,10.60
2006,03,23,09,41,10.60
2006,03,23,09,42,10.60
2006,03,23,09,43,10.60
2006,03,23,09,44,10.60
2006,03,23,09,45,10.60
2006,03,23,09,46,10.60
2006,03,23,09,47,10.60
2006,03,23,09,48,10.60
2006,03,23,09,49,10.60
2006,03,23,09,50,10.60
2006,03,23,09,51,10.60
2006,03,23,09,52,10.60
2006,03,23,09,53,10.60
2006,03,23,09,54,10.60
2006,03,23,09,55,10.60
2006,03,23,09,56,10.60
2006,03,23,09,57,10.60
2006,03,23,09,58,10.60
2006,03,23,09,59,10.60
2006,03,23,10,00,10.60
2006,03,23,10,01,10.60
2006,03,23,10,02,10.60
2006,03,23,10,03,10.60
2006,03,23,10,04,10.60
2006,03,23,10,05,10.60
2006,03,23,10,06,10.60
2006,03,23,10,07,10.60
2006,03,23,10,08,10.60
2006,03,23,10,09,10.60
2006,03,23,10,10,10.60
2006,03,23,10,11,10.60
2006,03,23,10,12,10.70
2006,03,23,10,13,10.70
2006,03,23,10,14,10.70
2006,03,23,10,15,10.70
2006,03,23,10,16,10.70
2006,03,23,10,17,10.70
2006,03,23,10,18,10.70
2006,03,23,10,19,10.70
2006,03,23,10,20,10.80
2006,03,23,10,21,10.80
2006,03,23,10,22,10.80
2006,03,23,10,23,10.80
2006,03,23,10,24,10.80
2006,03,23,10,25,10.90
2006,03,23,10,26,10.80
2006,03,23,10,27,10.80
2006,03,23,10,28,10.90
2006,03,23,10,29,10.90
2006,03,23,10,30,10.90
2006,03,23,10,31,10.90
2006,03,23,10,32,10.90
2006,03,23,10,33,10.90
2006,03,23,10,34,11.00
2006,03,23,10,35,11.10
2006,03,23,10,36,11.10
2006,03,23,10,37,11.10
2006,03,23,10,38,11.10
2006,03,23,10,39,11.20
2006,03,23,10,40,11.20
2006,03,23,10,41,11.30
2006,03,23,10,42,11.30
2006,03,23,10,43,11.40
2006,03,23,10,44,11.40
2006,03,23,10,45,11.40
2006,03,23,10,46,11.40
2006,03,23,10,47,11.40
2006,03,23,10,48,11.40
2006,03,23,10,49,11.40
2006,03,23,10,50,11.50
2006,03,23,10,51,11.60
2006,03,23,10,52,11.60
2006,03,23,10,53,11.60
2006,03,23,10,54,11.60
2006,03,23,10,55,11.70
2006,03,23,10,56,11.70
2006,03,23,10,57,11.70
2006,03,23,10,58,11.80
2006,03,23,10,59,11.80
2006,03,23,11,00,11.80
2006,03,23,11,01,11.90
2006,03,23,11,02,12.00
2006,03,23,11,03,12.00
2006,03,23,11,04,12.00
2006,03,23,11,05,12.10
2006,03,23,11,06,12.20
2006,03,23,11,07,12.20
2006,03,23,11,08,12.20
2006,03,23,11,09,12.20
2006,03,23,11,10,12.20
2006,03,23,11,11,12.30
2006,03,23,11,12,12.20
2006,03,23,11,13,12.20
2006,03,23,11,14,12.20
2006,03,23,11,15,12.30
2006,03,23,11,16,12.30
2006,03,23,11,17,12.40
2006,03,23,11,18,12.50
2006,03,23,11,19,12.60
2006,03,23,11,20,12.70
2006,03,23,11,21,12.80
2006,03,23,11,22,12.90
2006,03,23,11,23,13.00
2006,03,23,11,24,13.00
2006,03,23,11,25,13.10
2006,03,23,11,26,13.10
2006,03,23,11,27,13.20
2006,03,23,11,28,13.20
2006,03,23,11,29,13.20
2006,03,23,11,30,13.30
2006,03,23,11,31,13.30
2006,03,23,11,32,13.30
2006,03,23,11,33,13.30
2006,03,23,11,34,13.30
2006,03,23,11,35,13.30
2006,03,23,11,36,13.40
2006,03,23,11,37,13.50
2006,03,23,11,38,13.50
2006,03,23,11,39,13.60
2006,03,23,11,40,13.70
2006,03,23,11,41,13.70
2006,03,23,11,42,13.80
2006,03,23,11,43,13.80
2006,03,23,11,44,13.80
2006,03,23,11,45,13.90
2006,03,23,11,46,13.90
2006,03,23,11,47,14.00
2006,03,23,11,48,14.10
2006,03,23,11,49,14.20
2006,03,23,11,50,14.10
2006,03,23,11,51,14.10
2006,03,23,11,52,14.10
2006,03,23,11,53,14.10
2006,03,23,11,54,14.10
2006,03,23,11,55,14.10
2006,03,23,11,56,14.10
2006,03,23,11,57,14.10
2006,03,23,11,58,14.10
2006,03,23,11,59,14.00
2006,03,23,12,00,14.00
2006,03,23,12,01,13.90
2006,03,23,12,02,13.90
2006,03,23,12,03,13.80
2006,03,23,12,04,13.90
2006,03,23,12,05,13.90
2006,03,23,12,06,13.90
2006,03,23,12,07,13.90
2006,03,23,12,08,14.00
2006,03,23,12,09,14.00
2006,03,23,12,10,14.20
2006,03,23,12,11,14.20
2006,03,23,12,12,14.20
2006,03,23,12,13,14.40
2006,03,23,12,14,14.40
2006,03,23,12,15,14.40
2006,03,23,12,16,14.30
2006,03,23,12,17,14.20
2006,03,23,12,18,14.20
2006,03,23,12,19,14.20
2006,03,23,12,20,14.30
2006,03,23,12,21,14.30
2006,03,23,12,22,14.30
2006,03,23,12,23,14.30
2006,03,23,12,24,14.40
2006,03,23,12,25,14.40
2006,03,23,12,26,14.40
2006,03,23,12,27,14.50
2006,03,23,12,28,14.60
2006,03,23,12,29,14.60
2006,03,23,12,30,14.70
2006,03,23,12,31,14.70
2006,03,23,12,32,14.70
2006,03,23,12,33,14.80
2006,03,23,12,34,14.80
2006,03,23,12,35,14.80
2006,03,23,12,36,14.80
2006,03,23,12,37,14.80
2006,03,23,12,38,14.80
2006,03,23,12,39,14.80
2006,03,23,12,40,14.80
2006,03,23,12,41,14.80
2006,03,23,12,42,14.80
2006,03,23,12,43,14.80
2006,03,23,12,44,14.70
2006,03,23,12,45,14.80
2006,03,23,12,46,14.80
2006,03,23,12,47,14.80
2006,03,23,12,48,14.80
2006,03,23,12,49,14.80
2006,03,23,12,50,14.70
2006,03,23,12,51,14.70
2006,03,23,12,52,14.70
2006,03,23,12,53,14.70
2006,03,23,12,54,14.70
2006,03,23,12,55,14.70
2006,03,23,12,56,14.80
2006,03,23,12,57,14.80
2006,03,23,12,58,14.80
2006,03,23,12,59,14.90
2006,03,23,13,00,14.80
2006,03,23,13,01,14.80
2006,03,23,13,02,14.70
2006,03,23,13,03,14.70
2006,03,23,13,04,14.60
2006,03,23,13,05,14.50
2006,03,23,13,06,14.50
2006,03,23,13,07,14.50
2006,03,23,13,08,14.40
2006,03,23,13,09,14.40
2006,03,23,13,10,14.30
2006,03,23,13,11,14.30
2006,03,23,13,12,14.30
2006,03,23,13,13,14.30
2006,03,23,13,14,14.30
2006,03,23,13,15,14.40
2006,03,23,13,16,14.40
2006,03,23,13,17,14.40
2006,03,23,13,18,14.40
2006,03,23,13,19,14.40
2006,03,23,13,20,14.50
2006,03,23,13,21,14.50
2006,03,23,13,22,14.60
2006,03,23,13,23,14.60
2006,03,23,13,24,14.70
2006,03,23,13,25,14.70
2006,03,23,13,26,14.80
2006,03,23,13,27,14.80
2006,03,23,13,28,14.80
2006,03,23,13,29,14.80
2006,03,23,13,30,14.80
2006,03,23,13,31,14.80
2006,03,23,13,32,14.80
2006,03,23,13,33,14.80
2006,03,23,13,34,14.80
2006,03,23,13,35,14.80
2006,03,23,13,36,14.80
2006,03,23,13,37,14.80
2006,03,23,13,38,14.80
2006,03,23,13,39,14.80
2006,03,23,13,40,14.80
2006,03,23,13,41,14.80
2006,03,23,13,42,14.80
2006,03,23,13,43,14.80
2006,03,23,13,44,14.80
2006,03,23,13,45,14.90
2006,03,23,13,46,14.90
2006,03,23,13,47,15.00
2006,03,23,13,48,15.10
2006,03,23,13,49,15.20
2006,03,23,13,50,15.20
2006,03,23,13,51,15.30
2006,03,23,13,52,15.30
2006,03,23,13,53,15.30
2006,03,23,13,54,15.30
2006,03,23,13,55,15.30
2006,03,23,13,56,15.30
2006,03,23,13,57,15.30
2006,03,23,13,58,15.30
2006,03,23,13,59,15.30
2006,03,23,14,00,15.30
2006,03,23,14,01,15.20
2006,03,23,14,02,15.20
2006,03,23,14,03,15.20
2006,03,23,14,04,15.20
2006,03,23,14,05,15.20
2006,03,23,14,06,15.10
2006,03,23,14,07,15.10
2006,03,23,14,08,15.10
2006,03,23,14,09,15.10
2006,03,23,14,10,15.10
2006,03,23,14,11,15.10
2006,03,23,14,12,15.10
2006,03,23,14,13,15.10
2006,03,23,14,14,15.00
2006,03,23,14,15,15.00
2006,03,23,14,16,15.00
2006,03,23,14,17,15.00
2006,03,23,14,18,14.90
2006,03,23,14,19,14.90
2006,03,23,14,20,14.90
2006,03,23,14,21,14.90
2006,03,23,14,22,14.90
2006,03,23,14,23,14.90
2006,03,23,14,24,14.90
2006,03,23,14,25,14.90
2006,03,23,14,26,14.90
2006,03,23,14,27,14.90
2006,03,23,14,28,14.90
2006,03,23,14,29,14.90
2006,03,23,14,30,15.00
2006,03,23,14,31,15.00
2006,03,23,14,32,15.00
2006,03,23,14,33,15.00
2006,03,23,14,34,15.00
2006,03,23,14,35,15.00
2006,03,23,14,36,15.00
2006,03,23,14,37,15.00
2006,03,23,14,38,15.00
2006,03,23,14,39,15.00
2006,03,23,14,40,15.00
2006,03,23,14,41,15.00
2006,03,23,14,42,15.00
2006,03,23,14,43,15.00
2006,03,23,14,44,15.00
2006,03,23,14,45,15.00
2006,03,23,14,46,15.00
2006,03,23,14,47,15.00
2006,03,23,14,48,15.10
2006,03,23,14,49,15.10
2006,03,23,14,50,15.10
2006,03,23,14,51,15.10
2006,03,23,14,52,15.10
2006,03,23,14,53,15.10
2006,03,23,14,54,15.20
2006,03,23,14,55,15.20
2006,03,23,14,56,15.20
2006,03,23,14,57,15.20
2006,03,23,14,58,15.20
2006,03,23,14,59,15.20
2006,03,23,15,00,15.10
2006,03,23,15,01,15.10
2006,03,23,15,02,15.00
2006,03,23,15,03,14.90
2006,03,23,15,04,14.80
2006,03,23,15,05,14.80
2006,03,23,15,06,14.70
2006,03,23,15,07,14.60
2006,03,23,15,08,14.60
2006,03,23,15,09,14.50
2006,03,23,15,10,14.40
2006,03,23,15,11,14.30
2006,03,23,15,12,14.20
2006,03,23,15,13,14.10
2006,03,23,15,14,14.00
2006,03,23,15,15,14.00
2006,03,23,15,16,13.90
2006,03,23,15,17,13.90
2006,03,23,15,18,13.80
2006,03,23,15,19,13.80
2006,03,23,15,20,13.80
2006,03,23,15,21,13.80
2006,03,23,15,22,13.80
2006,03,23,15,23,13.80
2006,03,23,15,24,13.90
2006,03,23,15,25,13.90
2006,03,23,15,26,13.90
2006,03,23,15,27,14.00
2006,03,23,15,28,14.00
2006,03,23,15,29,14.20
2006,03,23,15,30,14.20
2006,03,23,15,31,14.30
2006,03,23,15,32,14.30
2006,03,23,15,33,14.40
2006,03,23,15,34,14.50
2006,03,23,15,35,14.50
2006,03,23,15,36,14.60
2006,03,23,15,37,14.70
2006,03,23,15,38,14.80
2006,03,23,15,39,14.80
2006,03,23,15,40,14.80
2006,03,23,15,41,14.80
2006,03,23,15,42,14.90
2006,03,23,15,43,14.90
2006,03,23,15,44,14.90
2006,03,23,15,45,15.00
2006,03,23,15,46,15.00
2006,03,23,15,47,15.10
2006,03,23,15,48,15.10
2006,03,23,15,49,15.10
2006,03,23,15,50,15.10
2006,03,23,15,51,15.20
2006,03,23,15,52,15.10
2006,03,23,15,53,15.10
2006,03,23,15,54,15.00
2006,03,23,15,55,15.00
2006,03,23,15,56,14.90
2006,03,23,15,57,14.90
2006,03,23,15,58,14.90
2006,03,23,15,59,14.90
2006,03,23,16,00,14.90
2006,03,23,16,01,14.90
2006,03,23,16,02,14.90
2006,03,23,16,03,14.90
2006,03,23,16,04,14.90
2006,03,23,16,05,14.90
2006,03,23,16,06,14.90
2006,03,23,16,07,14.90
2006,03,23,16,08,14.80
2006,03,23,16,09,14.80
2006,03,23,16,10,14.80
2006,03,23,16,11,14.80
2006,03,23,16,12,14.80
2006,03,23,16,13,14.80
2006,03,23,16,14,14.80
2006,03,23,16,15,14.80
2006,03,23,16,16,14.80
2006,03,23,16,17,14.80
2006,03,23,16,18,14.80
2006,03,23,16,19,14.80
2006,03,23,16,20,14.90
2006,03,23,16,21,14.90
2006,03,23,16,22,15.00
2006,03,23,16,23,15.00
2006,03,23,16,24,15.00
2006,03,23,16,25,15.10
2006,03,23,16,26,15.10
2006,03,23,16,27,15.10
2006,03,23,16,28,15.10
2006,03,23,16,29,15.10
2006,03,23,16,30,15.20
2006,03,23,16,31,15.20
2006,03,23,16,32,15.20
2006,03,23,16,33,15.10
2006,03,23,16,34,15.10
2006,03,23,16,35,15.10
2006,03,23,16,36,15.10
2006,03,23,16,37,15.10
2006,03,23,16,38,15.00
2006,03,23,16,39,15.00
2006,03,23,16,40,15.00
2006,03,23,16,41,15.00
2006,03,23,16,42,15.10
2006,03,23,16,43,15.00
2006,03,23,16,44,15.00
2006,03,23,16,45,15.00
2006,03,23,16,46,15.00
2006,03,23,16,47,15.00
2006,03,23,16,48,15.00
2006,03,23,16,49,15.00
2006,03,23,16,50,15.00
2006,03,23,16,51,15.00
2006,03,23,16,52,15.00
2006,03,23,16,53,14.90
2006,03,23,16,54,14.90
2006,03,23,16,55,14.90
2006,03,23,16,56,14.90
2006,03,23,16,57,14.90
2006,03,23,16,58,14.90
2006,03,23,16,59,14.90
2006,03,23,17,00,14.90
2006,03,23,17,01,14.90
2006,03,23,17,02,14.90
2006,03,23,17,03,14.90
2006,03,23,17,04,14.90
2006,03,23,17,05,14.90
2006,03,23,17,06,14.90
2006,03,23,17,07,14.80
2006,03,23,17,08,14.80
2006,03,23,17,09,14.80
2006,03,23,17,10,14.80
2006,03,23,17,11,14.80
2006,03,23,17,12,14.70
2006,03,23,17,13,14.70
2006,03,23,17,14,14.60
2006,03,23,17,15,14.60
2006,03,23,17,16,14.50
2006,03,23,17,17,14.50
2006,03,23,17,18,14.40
2006,03,23,17,19,14.40
2006,03,23,17,20,14.30
2006,03,23,17,21,14.30
2006,03,23,17,22,14.30
2006,03,23,17,23,14.30
2006,03,23,17,24,14.40
2006,03,23,17,25,14.40
2006,03,23,17,26,14.40
2006,03,23,17,27,14.40
2006,03,23,17,28,14.50
2006,03,23,17,29,14.50
2006,03,23,17,30,14.50
2006,03,23,17,31,14.50
2006,03,23,17,32,14.50
2006,03,23,17,33,14.50
2006,03,23,17,34,14.40
2006,03,23,17,35,14.40
2006,03,23,17,36,14.40